Location: Edmonton
(53.5500°N, 113.5000°W)
Time: 03:17:24
(UTC-07:00)

Daily predictions for brighter satellites

Satellite Brightness Start Highest point End
(mag) Time Altitude Azimuth Time Altitude Azimuth Time Altitude Azimuth
Cosmos 2237 Rocket 4.2 03:52:17 24° ENE 03:52:17 24° ENE 03:55:20 10° NE
CENTAUR R/B 4.3 03:58:46 22° SE 04:00:03 24° ESE 04:05:19 10° ENE
Cosmos 2369 Rocket 4.1 04:12:19 24° NNE 04:12:20 24° NNE 04:16:56 10° E
ADEOS II 3.9 04:09:26 10° NNE 04:12:25 27° ENE 04:12:25 27° ENE
ATLAS 3B R/B 3.6 04:17:17 42° NNE 04:17:17 42° NNE 04:22:18 10° NE
Lacrosse 5 rocket 4.4 04:19:05 13° ENE 04:19:05 13° ENE 04:19:41 10° ENE
NOSS 3-2 (C) 4.0 04:26:56 58° ENE 04:26:56 58° ENE 04:32:26 10° NE
Cosmos 2219 Rocket 3.4 04:31:12 37° NE 04:31:12 37° NE 04:34:37 10° NE
CZ-4C R/B 3.6 04:32:24 35° NNE 04:32:24 35° NNE 04:37:00 10° NE
ATLAS 5 CENTAUR R/B 3.8 04:33:24 26° NNE 04:33:24 26° NNE 04:36:13 10° NE
Cosmos 2333 Rocket 3.0 04:38:55 47° NE 04:38:55 47° NE 04:43:01 10° NE
NOSS 3-2 (A) 3.7 04:53:08 66° N 04:53:08 66° N 04:59:25 10° NE
ADEOS Rocket 4.1 04:54:19 10° N 04:57:12 31° N 04:57:12 31° N
NOSS 0 Rocket 3.8 05:01:23 85° ESE 05:01:23 85° ESE 05:07:40 10° NE
SL-16 R/B 3.3 04:59:25 18° S 05:03:16 42° ESE 05:08:35 10° NE
Cosmos 1943 Rocket 3.9 05:04:22 21° N 05:06:21 26° NE 05:10:54 10° E
COSMOS 2428 3.8 05:10:56 33° N 05:10:56 33° N 05:14:28 10° NNE
Cosmos 2322 Rocket 4.1 05:14:31 17° N 05:14:31 17° N 05:16:54 10° NNE
Cosmos 2360 Rocket 3.8 05:17:52 22° N 05:17:52 22° N 05:20:37 10° NNE
Lacrosse 4 Rocket 3.6 05:17:31 19° NNE 05:17:45 19° NNE 05:20:45 10° ENE
Cosmos 1980 Rocket 4.3 05:18:37 14° N 05:18:37 14° N 05:21:00 10° NNE
COSMOS 2455 4.1 05:22:04 28° N 05:22:04 28° N 05:26:38 10° NE
USA 215 4.2 05:16:45 10° ENE 05:22:54 42° SE 05:28:10 14° SSW
Cosmos 1680 Rocket 4.2 05:19:29 11° S 05:24:25 53° ESE 05:29:30 10° NNE
SKYMED 2 3.9 05:21:07 10° SSE 05:24:53 62° ESE 05:24:53 62° ESE
Cosmos 2151 Rocket 4.4 05:21:26 10° S 05:25:48 52° E 05:30:11 10° NNE
CZ-4B R/B 4.3 05:24:27 10° NNE 05:28:55 72° ESE 05:30:17 44° S
Meteor 1-28 Rocket 4.2 05:29:41 10° SE 05:33:19 45° ENE 05:34:00 41° NE
Cosmos 2237 Rocket 2.0 05:34:09 67° WNW 05:34:18 67° NW 05:39:57 10° NNE
Feng Yun 1-1 Rocket 4.2 05:30:41 10° NNE 05:36:25 89° WNW 05:41:58 10° SSW
CZ-4B R/B 4.0 05:31:24 10° N 05:34:56 35° NNW 05:34:56 35° NNW
NOAA 6 4.4 05:32:15 10° NNE 05:37:21 63° ESE 05:42:26 10° S
Cosmos 1709 Rocket 3.9 05:36:53 50° WSW 05:38:08 60° WNW 05:44:21 10° N
SL-16 R/B 4.1 05:39:56 16° NNW 05:39:56 16° NNW 05:42:53 10° NNE
Okean-O 3.6 05:36:09 10° NNE 05:38:47 35° N 05:38:47 35° N
Meteor 1-18 Rocket 4.3 05:41:22 49° NW 05:42:41 62° W 05:48:30 10° S
Cosmos 1536 Rocket 3.8 05:43:30 57° SSW 05:43:30 57° SSW 05:47:06 10° S
Cosmos 2112 Rocket 4.3 05:38:07 10° SSW 05:43:16 65° ESE 05:48:26 10° NNE
USA 238 DEB 4.3 05:44:54 36° NW 05:46:31 41° NNW 05:53:08 10° NE
USA 238 4.3 05:44:59 36° NW 05:46:36 41° NNW 05:53:14 10° NE
Cosmos 1238 Rocket 3.9 05:47:59 42° SSW 05:47:59 42° SSW 05:51:46 10° S
CENTAUR R/B 2.6 05:46:00 28° SW 05:49:43 85° SE 05:56:59 10° NE
Helios 1B rocket 4.3 05:46:16 10° ESE 05:49:52 30° ENE 05:53:31 10° N
ADEOS II 2.5 05:49:07 10° N 05:53:22 42° NW 05:53:22 42° NW
Lacrosse 5 rocket 1.2 05:54:49 71° NNW 05:54:53 71° NNW 05:59:13 10° ENE
SL-23 DEB 4.0 05:56:34 46° SSE 05:56:34 46° SSE 05:59:18 10° ESE
Cosmos 2369 Rocket 2.3 05:54:08 27° NNW 05:57:21 75° NE 06:03:04 10° SE
Cosmos 1025 Rocket 4.0 05:55:46 10° N 06:00:02 47° ENE 06:04:17 10° SSE
Cosmos 1315 Rocket 4.1 06:07:43 26° N 06:07:43 26° N 06:09:43 10° N
ATLAS 3B R/B 3.6 06:04:33 27° NW 06:07:33 37° N 06:13:55 10° ENE
Cosmos 921 Rocket 4.0 06:08:51 31° SW 06:08:51 31° SW 06:11:52 10° SSW
Okean 1 Rocket 3.8 06:03:58 10° S 06:08:15 53° E 06:12:32 10° NNE
Cosmos 1980 4.1 06:07:32 39° WNW 06:08:31 42° NW 06:13:56 10° NNE
Okean 1-7 Rocket 3.5 06:06:21 16° N 06:09:51 83° ENE 06:14:15 10° SSE
SJ-6F 4.3 06:06:57 10° N 06:11:01 65° WNW 06:15:02 10° SSW
Meteor 1-20 Rocket 4.0 06:06:12 10° SSW 06:11:46 76° WNW 06:17:17 10° NNE
Cosmos 2219 Rocket 2.9 06:12:58 31° NW 06:13:25 32° NW 06:18:29 10° NNE
COSMO-SKYMED 1 2.9 06:09:27 10° S 06:13:27 42° WSW 06:13:27 42° WSW
Lacrosse 5 4.4 06:11:18 10° S 06:14:59 20° SE 06:18:42 10° E
ATLAS 5 CENTAUR R/B 3.3 06:14:57 24° NNW 06:16:52 30° N 06:21:59 10° ENE
NOSS 3-2 (C) 4.1 06:14:23 32° WNW 06:17:01 46° NNW 06:23:54 10° NE
Nadezhda 3 Rocket 3.9 06:12:23 10° NNW 06:18:45 79° W 06:25:07 10° S
Cosmos 2056 Rocket 3.6 06:17:27 33° NW 06:19:19 49° WSW 06:24:14 10° S
Okean 1 4.5 06:21:04 27° SW 06:21:04 27° SW 06:23:27 10° SSW
CZ-4C R/B 3.5 06:17:35 24° NW 06:20:40 36° N 06:27:08 10° ENE
Cosmos 1900 4.4 06:18:55 28° NW 06:21:33 75° NE 06:26:28 10° SE
Cosmos 2333 Rocket 2.9 06:20:58 31° WNW 06:22:06 34° NW 06:27:14 10° NNE
Cosmos 1420 Rocket 4.5 06:19:22 14° NNW 06:23:58 60° ENE 06:29:09 10° SE
Okean 2 4.1 06:25:12 10° N 06:29:21 56° ENE 06:33:27 10° SSE
Cosmos 1892 Rocket 4.3 06:25:15 10° N 06:29:38 54° ENE 06:34:01 10° SSE
Meteor 1-19 Rocket 4.3 06:25:42 10° NNW 06:31:32 66° W 06:37:16 10° S
IDEFIX/ARIANE 42P 4.0 06:28:27 10° NNE 06:33:20 39° E 06:38:11 10° SSE
Ariane Rocket 2.9 06:32:24 10° NNE 06:37:29 78° WNW 06:42:32 10° SSW
Meteor 1-29 3.5 06:34:48 10° SSE 06:38:07 57° ENE 06:41:28 10° N
Cosmos 923 Rocket 4.4 06:34:19 16° WSW 06:38:09 41° NW 06:43:10 10° NNE
Cosmos 1346 Rocket 4.1 06:40:03 22° WSW 06:40:03 22° WSW 06:42:18 10° SW
Cosmos 1300 Rocket 3.5 06:35:53 10° SSW 06:40:17 66° WNW 06:44:42 10° N
Meteor 1-11 Rocket 3.8 06:35:23 10° S 06:41:14 88° E 06:47:00 10° NNE
Cosmos 1602 3.6 06:37:32 10° SSW 06:41:29 73° WNW 06:45:28 10° N
Cosmos 2341 Rocket 4.1 06:36:43 10° S 06:43:01 84° E 06:49:19 10° NNE
NOSS 3-2 (A) 4.3 06:40:33 22° WNW 06:44:20 39° N 06:51:08 10° ENE
ADEOS Rocket 4.4 06:41:15 10° N 06:44:09 16° NW 06:44:09 16° NW
Cosmos 2074 Rocket 4.2 06:40:06 10° SW 06:46:05 45° WNW 06:52:05 10° N
SL-16 R/B 2.4 06:41:55 10° WSW 06:47:23 47° NW 06:52:52 10° NNE
Cosmos 292 Rocket 4.1 06:43:17 10° SW 06:47:55 44° NW 06:52:33 10° NNE
CZ-4 R/B 1.9 06:44:14 10° NNE 06:48:14 62° ESE 06:52:08 10° S
SL-24 DEB 4.4 06:45:59 10° SSW 06:50:39 54° W 06:55:24 10° NNW
Cosmos 1943 Rocket 2.1 06:45:54 13° NNW 06:50:52 88° ENE 06:56:23 10° SSE
COSMOS 2428 4.2 06:52:57 16° NW 06:54:44 18° NNW 06:58:37 10° NNE
Lacrosse 4 Rocket 1.7 06:53:52 15° NNW 06:57:16 65° NE 07:01:22 10° SE
Cosmos 2263 4.3 06:53:18 14° NW 06:58:04 60° WSW 07:03:35 10° SSE
Cosmos 2322 Rocket 4.2 06:56:37 10° NNW 06:59:24 14° N 07:02:11 10° NNE
Cosmos 2184 Rocket 4.4 06:54:19 10° SW 07:00:01 38° WNW 07:05:48 10° N
Cosmos 2360 Rocket 4.0 06:59:39 11° NW 07:01:53 14° N 07:04:48 10° NNE
Meteor 1-23 Rocket 4.2 06:57:03 10° NNW 07:02:32 58° W 07:07:57 10° S
Cosmos 1455 Rocket 4.3 06:59:42 10° SSE 07:03:48 44° E 07:07:57 10° NNE
Cosmos 1980 Rocket 4.2 07:01:18 10° NNW 07:04:38 16° NNE 07:07:57 10° NE
USA 215 3.3 06:59:49 10° ENE 07:06:23 89° SSE 07:12:57 10° WSW
Cosmos 1680 Rocket 4.1 07:02:06 10° WSW 07:06:48 33° NW 07:11:32 10° NNE
Cosmos 1452 Rocket 3.9 07:04:13 12° NW 07:08:51 44° WSW 07:13:49 10° S
COSMOS 2455 4.3 07:05:13 12° NW 07:09:20 23° N 07:14:03 10° ENE
Cosmos 1633 3.0 07:06:12 10° SW 07:09:38 39° WNW 07:13:06 10° N
Cosmos 1536 2.8 07:07:02 10° SSW 07:10:59 58° WNW 07:14:58 10° N
Tiangong 2 3.8 07:12:04 10° SSW 07:13:21 12° S 07:14:39 10° SSE
Cosmos 2154 Rocket 4.1 07:09:07 10° SSW 07:15:08 51° WNW 07:21:12 10° N
Okean-O 4.3 07:14:12 10° NNW 07:16:20 13° NW 07:16:22 13° NW
IRS-1A Rocket 4.3 07:11:01 10° NNE 07:16:38 72° WNW 07:22:21 10° SSW
Cosmos 2237 Rocket 3.4 07:16:01 13° WNW 07:19:27 22° NNW 07:23:47 10° NNE
Meteor 2-4 Rocket 4.2 07:15:54 10° NNW 07:20:52 38° W 07:25:57 10° SSW
Cosmos 1340 2.9 07:17:52 10° NNW 07:21:32 47° W 07:25:11 10° S
Cosmos 1656 Rocket 3.9 07:15:54 10° NNW 07:21:34 77° ENE 07:27:15 10° SE
AQUARIUS 4.1 07:18:39 10° NNE 07:23:11 82° WNW 07:27:40 10° SSW
Helios 1B rocket 3.0 07:21:14 10° SSW 07:25:06 38° W 07:29:02 10° NNW
CZ-2C R/B 2.5 07:20:23 10° NNE 07:25:38 81° WNW 07:30:46 10° SSW
SL-16 R/B 4.2 07:23:02 10° NNW 07:26:00 14° N 07:28:57 10° NE
YAOGAN 1 2.5 07:22:37 10° NNE 07:26:59 81° WNW 07:31:19 10° SSW
Cosmos 1484 Rocket 3.5 07:23:58 10° NNE 07:27:41 56° E 07:31:25 10° S
CSL-04 Debris 4.4 07:24:09 10° N 07:29:22 48° WNW 07:34:36 10° SW
CSL-04 Rocket 4.1 07:24:09 10° N 07:29:23 43° WNW 07:34:35 10° SW
ADEOS II 3.9 07:31:06 10° NNW 07:32:39 11° NW 07:34:14 10° WNW
Lacrosse 5 rocket 1.8 07:30:32 11° WNW 07:34:31 53° N 07:38:53 10° E
SJ-7 4.5 07:32:51 10° N 07:37:02 64° WNW 07:41:08 10° SSW
SMAP 3.0 07:32:38 10° N 07:37:16 65° WNW 07:41:53 10° SSW
Cosmos 1025 Rocket 4.2 07:33:52 10° NW 07:37:24 24° W 07:40:54 10° SW
USA 238 DEB 4.5 07:32:26 10° NW 07:39:02 41° NNE 07:45:39 10° E
USA 238 4.5 07:32:31 10° WNW 07:39:07 41° NNE 07:45:44 10° E
Meteor 1-5 Rocket 4.1 07:33:54 10° SSW 07:39:13 68° WNW 07:44:32 10° N
Cosmos 1697 Rocket 4.3 07:35:23 10° NNW 07:39:57 24° NNE 07:44:29 10° E
Cosmos 1602 Rocket 3.6 07:35:28 10° NNW 07:40:00 86° WSW 07:44:28 10° S
Cosmos 2369 Rocket 3.4 07:36:19 10° NW 07:40:51 25° WSW 07:45:21 10° SSW
CENTAUR R/B 3.2 07:34:44 10° W 07:41:06 45° NNW 07:48:20 10° NE
Resurs 01 Rocket 4.4 07:38:13 10° NE 07:41:36 21° E 07:44:58 10° SE
MSX 3.9 07:38:22 10° NNE 07:44:10 88° ESE 07:49:55 10° SSW
Cosmos 1603 4.0 07:39:27 10° WSW 07:44:53 44° NW 07:50:19 10° NNE
Cosmos 44 3.9 07:39:42 10° SSW 07:45:00 71° SE 07:50:05 10° NE
CZ-4 R/B 4.4 07:41:40 10° N 07:45:50 66° WNW 07:49:57 10° SSW
DNEPR-1 R/B 4.5 07:39:54 10° WSW 07:46:24 54° NW 07:51:42 10° NE
Okean 1 Rocket 4.2 07:43:00 10° WSW 07:46:29 22° WNW 07:49:59 10° NNW
Cosmos 1269 Rocket 4.3 07:44:20 10° SSW 07:49:36 76° ESE 07:54:56 10° NNE
SWAS 4.5 07:45:40 10° NW 07:49:58 77° WSW 07:54:13 10° SSE
Cosmos 1544 Rocket 3.7 07:47:36 10° SSW 07:51:53 55° WNW 07:56:14 10° N
SL-8 Rocket 4.1 07:46:14 10° SSW 07:52:21 55° WNW 07:58:29 10° N
Cosmos 1975 2.9 07:48:35 10° S 07:52:41 87° E 07:56:50 10° NNE
SPOT 3 Rocket 3.7 07:50:19 10° N 07:55:21 55° WNW 08:00:22 10° SW
Lacrosse 5 2.3 07:52:12 10° SW 07:57:17 68° SSE 08:02:21 10° ENE
ATLAS 3B R/B 3.3 07:52:47 10° NW 07:59:45 50° NNE 08:06:18 10° E
